EW4092 Weather Reports


time (UTC)temp
C
wind
direction
speed
KPH
gust
KPH
rain 1hr
cm
rain 24hr
cm
rain mn
cm
humidity
%
barometer
mb
20260831024505 22 79 0.0 0.0 0.00 0.00 0.00 38 1014.5
20260831023006 23 79 0.0 1.6 0.00 0.00 0.00 33 1014.5
20260831021507 25 79 0.0 1.6 0.00 0.00 0.00 33 1014.5
20260831020004 23 335 0.0 1.6 0.00 0.00 0.00 34 1014.5
20260831014502 23 335 0.0 0.0 0.00 0.00 0.00 35 1014.4
20260831013002 23 335 0.0 1.6 0.00 0.00 0.00 34 1014.5
20260831011601 23 63 0.0 3.2 0.00 0.00 0.00 32 1014.6
20260831010100 25 335 0.0 6.4 0.00 0.00 0.00 30 1014.6
20260831004600 25 43 0.0 4.8 0.00 0.00 0.00 28 1014.7
20260831003058 25 46 0.0 6.4 0.00 0.00 0.00 28 1014.8
20260831001556 25 102 1.6 8.0 0.00 0.00 0.00 28 1014.8
20260831000054 25 215 0.0 6.4 0.00 0.00 0.00 29 1014.9
20260830234553 25 274 1.6 6.4 0.00 0.00 0.00 31 1014.9
20260830233053 24 281 3.2 6.4 0.00 0.00 0.00 31 1015.0
20260830231551 25 98 0.0 4.8 0.00 0.00 0.00 28 1015.3
20260830230048 24 318 1.6 8.0 0.00 0.00 0.00 30 1015.4
20260830224546 24 284 6.4 11.3 0.00 0.00 0.00 30 1015.7
20260830223041 23 246 3.2 6.4 0.00 0.00 0.00 33 1015.9
20260830221542 23 137 0.0 6.4 0.00 0.00 0.00 32 1016.0
20260830220037 23 98 1.6 9.7 0.00 0.00 0.00 32 1016.2
20260830214534 22 183 0.0 9.7 0.00 0.00 0.00 33 1016.5
20260830213036 22 68 4.8 14.5 0.00 0.00 0.00 34 1016.6
20260830211529 22 19 1.6 9.7 0.00 0.00 0.00 36 1016.7
20260830210028 22 81 8.0 17.7 0.00 0.00 0.00 35 1016.7
20260830204526 22 284 4.8 11.3 0.00 0.00 0.00 35 1016.8
20260830203022 21 44 1.6 6.4 0.00 0.00 0.00 35 1017.0
20260830201521 21 40 1.6 11.3 0.00 0.00 0.00 36 1017.1
20260830200019 21 88 4.8 12.9 0.00 0.00 0.00 38 1017.1
20260830194515 20 329 0.0 9.7 0.00 0.00 0.00 38 1017.2
20260830193014 20 57 3.2 9.7 0.00 0.00 0.00 38 1017.4
20260830191515 20 328 3.2 8.0 0.00 0.00 0.00 39 1017.5
20260830190013 20 335 1.6 8.0 0.00 0.00 0.00 41 1017.7
20260830184509 20 212 3.2 9.7 0.00 0.00 0.00 40 1017.8
20260830183007 20 165 0.0 8.0 0.00 0.00 0.00 41 1017.9
20260830181506 19 305 1.6 6.4 0.00 0.00 0.00 44 1018.0
20260830180002 18 118 1.6 6.4 0.00 0.00 0.00 43 1018.0
20260830174501 18 297 0.0 6.4 0.00 0.00 0.00 45 1018.0
20260830173117 18 314 1.6 11.3 0.00 0.00 0.00 45 1018.1
20260830171605 17 49 3.2 8.0 0.00 0.00 0.00 45 1018.2
20260830170054 17 319 3.2 4.8 0.00 0.00 0.00 47 1018.3
20260830164551 17 64 3.2 8.0 0.00 0.00 0.00 49 1018.4
20260830163150 16 93 0.0 4.8 0.00 0.00 0.00 50 1018.6
20260830161601 16 346 0.0 3.2 0.00 0.00 0.00 53 1018.6
20260830160042 15 77 0.0 4.8 0.00 0.00 0.00 57 1018.7
20260830154540 14 110 0.0 4.8 0.00 0.00 0.00 58 1018.8
20260830153040 13 109 0.0 3.2 0.00 0.00 0.00 60 1018.9
20260830151535 12 117 1.6 4.8 0.00 0.00 0.00 63 1019.0
20260830150034 11 64 1.6 3.2 0.00 0.00 0.00 64 1019.0
20260830144632 11 109 0.0 3.2 0.00 0.00 0.00 67 1018.9
20260830143032 9 109 0.0 3.2 0.00 0.00 0.00 73 1018.9
20260830141531 8 71 0.0 1.6 0.00 0.00 0.00 77 1018.8
20260830140030 6 70 0.0 3.2 0.00 0.00 0.00 82 1018.7
20260830134528 6 71 0.0 1.6 0.00 0.00 0.00 84 1018.6
20260830133031 5 67 0.0 4.8 0.00 0.00 0.00 83 1018.6
20260830131523 6 87 0.0 1.6 0.00 0.00 0.00 84 1018.4
20260830130121 6 88 0.0 0.0 0.00 0.00 0.00 85 1018.2
20260830124531 6 87 0.0 1.6 0.00 0.00 0.00 83 1018.2
20260830123019 6 88 0.0 0.0 0.00 0.00 0.00 84 1018.1
20260830121517 6 88 0.0 0.0 0.00 0.00 0.00 83 1018.2
20260830120014 6 87 0.0 0.0 0.00 0.00 0.00 81 1018.1
20260830114511 7 88 0.0 0.0 0.00 0.00 0.00 80 1018.0
20260830113009 7 88 0.0 1.6 0.00 0.00 0.00 78 1017.9
20260830111607 8 87 0.0 0.0 0.00 0.00 0.00 78 1017.8
20260830110006 7 88 0.0 3.2 0.00 0.00 0.00 78 1017.7
20260830104503 8 41 0.0 0.0 0.00 0.00 0.00 77 1017.8
20260830103002 8 41 0.0 1.6 0.00 0.00 0.00 77 1017.7
20260830101559 8 32 0.0 1.6 0.00 0.00 0.00 76 1017.7
20260830100057 8 32 0.0 1.6 0.00 0.00 0.00 76 1017.7
20260830094555 8 32 0.0 1.6 0.00 0.00 0.00 75 1017.7
20260830093051 9 82 0.0 1.6 0.00 0.00 0.00 73 1017.5
20260830091549 10 82 0.0 1.6 0.00 0.00 0.00 72 1017.6
20260830090045 11 82 0.0 1.6 0.00 0.00 0.00 71 1017.7
20260830084544 11 58 1.6 8.0 0.00 0.00 0.00 69 1017.6
20260830083041 12 110 0.0 4.8 0.00 0.00 0.00 68 1017.3
20260830081543 12 110 0.0 1.6 0.00 0.00 0.00 70 1017.4
20260830080035 12 110 0.0 1.6 0.00 0.00 0.00 66 1017.3
20260830074532 13 110 0.0 1.6 0.00 0.00 0.00 63 1017.3
20260830073031 13 110 0.0 6.4 0.00 0.00 0.00 62 1017.3
20260830071529 13 104 0.0 3.2 0.00 0.00 0.00 63 1017.3
20260830070026 13 104 0.0 3.2 0.00 0.00 0.00 62 1017.4
20260830064526 13 104 0.0 4.8 0.00 0.00 0.00 60 1017.4
20260830063034 13 117 0.0 4.8 0.00 0.00 0.00 59 1017.3
20260830061525 14 138 0.0 4.8 0.00 0.00 0.00 58 1017.3
20260830060024 14 166 1.6 8.0 0.00 0.00 0.00 57 1017.4
20260830054525 14 149 1.6 6.4 0.00 0.00 0.00 57 1017.5
20260830053023 14 158 1.6 9.7 0.00 0.00 0.00 57 1017.6
20260830051522 15 114 0.0 3.2 0.00 0.00 0.00 56 1017.8
20260830050022 15 121 0.0 8.0 0.00 0.00 0.00 54 1017.8
20260830044520 15 126 1.6 6.4 0.00 0.00 0.00 55 1017.7
20260830043020 15 115 0.0 3.2 0.00 0.00 0.00 54 1017.7
20260830041522 16 121 0.0 3.2 0.00 0.00 0.00 52 1017.6
20260830040016 16 124 1.6 8.0 0.00 0.00 0.00 51 1017.3
20260830034514 16 118 0.0 6.4 0.00 0.00 0.00 49 1017.0
20260830033013 16 180 0.0 6.4 0.00 0.00 0.00 49 1016.7
20260830031511 17 153 1.6 6.4 0.00 0.00 0.00 48 1016.6
20260830030009 17 113 1.6 14.5 0.00 0.00 0.00 46 1016.3